weather.gov     
National Weather Service

Regional Weather Roundup
NWS Homepage
This page is being discontinued on March 12, 2014.
The same data is available at this site. Please update your bookmarks.
Thank you, and we apologize for the inconvenience.
Please send an email to SR-SRH.Webmaster@noaa.gov with any concerns.


Current Version
Previous Version:    01  02  03  04  05  06  07  08  09  10  11  12  13  14  15  16  17  18  19  20  21  22  23  24  25  26  27  
[Printable]
139
ASUS42 KILM 301610
RWRILM
RWRILM
REGIONAL HOURLY WEATHER ROUNDUP
NATIONAL WEATHER SERVICE WILMINGTON NC
1200 PM EDT SAT AUG 30 2014

NOTE: "FAIR" INDICATES FEW OR NO CLOUDS BELOW 12,000 FEET WITH NO
SIGNIFICANT WEATHER AND/OR OBSTRUCTIONS TO VISIBILITY.

...............WFO WILMINGTON COUNTY WARNING AREA...............

......COASTAL NC AND SC COUNTIES......

CITY           SKY/WX    TMP DP  RH WIND       PRES   REMARKS
WILMINGTON     CLOUDY    83  73  72 N5        30.21S
SOUTHPORT      LGT RAIN  78  74  88 CALM      30.21S
N MYRTLE BEACH MOSUNNY   85  75  72 SE9       30.20S HX  93
MYRTLE BEACH   NOT AVBL

......INLAND NC AND SC COUNTIES.......

CITY           SKY/WX    TMP DP  RH WIND       PRES   REMARKS
LUMBERTON      MOSUNNY   87  72  60 S7        30.20F HX  93
ELIZABETHTOWN  MOSUNNY   87  71  59 CALM      30.20F HX  93
WHITEVILLE     MOSUNNY   86  73  65 E5        30.20S HX  92
FLORENCE       MOSUNNY   85  70  60 NW3       30.20F
DARLINGTON     SUNNY     88  70  55 E3        30.21F HX  92

....................REST OF NORTH CAROLINA......................

.........EASTERN NC.........

CITY           SKY/WX    TMP DP  RH WIND       PRES   REMARKS
CAPE HATTERAS  NOT AVBL
JACKSONVILLE   PTSUNNY   84  72  65 CALM      30.21S
MOREHEAD CITY  PTSUNNY   83  75  77 S7        30.22S HX  90
KENANSVILLE    SUNNY     85  69  60 CALM      30.23S
NEW BERN       MOSUNNY   86  71  60 CALM      30.22F HX  91
ELIZABETH CITY MOSUNNY   82  73  74 E12       30.23F

.........CENTRAL NC.........

CITY           SKY/WX    TMP DP  RH WIND       PRES   REMARKS
RALEIGH DURHAM MOSUNNY   83  72  69 CALM      30.23S
ROCKY MOUNT    MOSUNNY   83  72  69 VRB3      30.22F
ROANOKE RAPIDS NOT AVBL
FAYETTEVILLE   PTSUNNY   85  74  69 VRB5      30.21F HX  92
HOFFMAN        PTSUNNY   85  70  61 VRB3      30.23F

.........WESTERN NC.........

CITY           SKY/WX    TMP DP  RH WIND       PRES   REMARKS
CHARLOTTE      MOSUNNY   84  67  56 SE8       30.22F
GREENSBORO     MOSUNNY   84  70  62 S5        30.22S
HICKORY        NOT AVBL
BOONE          NOT AVBL
ASHEVILLE      NOT AVBL

.....................REST OF SOUTH CAROLINA.....................

.........EASTERN SC.........

CITY           SKY/WX    TMP DP  RH WIND       PRES   REMARKS
CHARLESTON     PTSUNNY   87  72  60 SE7       30.19F HX  93
BEAUFORT MCAS  MOSUNNY   90  70  51 S9        30.18F HX  95
HILTON HEAD    NOT AVBL

.........CENTRAL SC.........

CITY           SKY/WX    TMP DP  RH WIND       PRES   REMARKS
COLUMBIA       PTSUNNY   88  70  55 SE8       30.18F HX  93
ORANGEBURG     SUNNY     89  66  46 E6        30.19F HX  91
SUMTER SHAW    MOSUNNY   87  69  54 SE5       30.19F HX  91

.........WESTERN SC.........

CITY           SKY/WX    TMP DP  RH WIND       PRES   REMARKS
GREENVILLE     NOT AVBL
ROCK HILL      MOSUNNY   84  69  60 VRB3      30.21F
ANDERSON       SUNNY     84  71  65 SE7       30.19F
CLEMSON        NOT AVBL
GREENWOOD      MOSUNNY   87  71  58 VRB5      30.21S HX  93


...................COASTAL AND OFFSHORE REPORTS..................

................LOCAL PIERS AND NC RESERVE................


STATION/POSITION TIME  SKY/WX   TEMP    WIND        PRES    VSBY
                                AIR SEA DIR/SP/G
                 (UTC)          (F)     (DEG/KT/KT) (MB)    (MI)
JOHNY MRCER PIER 1600            82 83  120/  9/ 11 1022.6F
NC RESRV MASNBRO 1500            87      90/  4     1023.0S
OCEAN CREST PIER 1600            83 84  110/ 10/ 11 1022.1R
SPRINGMAID  PIER 1600            83 82   80/  5/  6 1022.8S


................COASTAL AND OFFSHORE BUOYS................


STATION/POSITION TIME  SKY/WX   TEMP    WIND        PRES    VSBY
                                AIR SEA DIR/SP/G
                 (UTC)          (F)     (DEG/KT/KT) (MB)    (MI)
DIMNDSHOAL 41025 1600            80     150/  8/ 10 1023.2F
WVE H/P(F/S)=  3/ 7 WND WVE H/P(F/S)=  2/ 4 SWL H/P/D(F/S/D)=  3/ 90/ 7

CAPE LOOKOUT     1500            81     110/  5/  6 1023.5R
ONSLOW BAY 41036 1500            80 83   70/  6/  8 1023.6S
5 WRITEBCH 41038 1600            79 82  130/ 10/ 12   N/A
MASONBORO  41110 1600               82                N/A
WVE H/P(F/S)=  2/ 8 WND WVE H/P(F/S)=  2/ 8

WILM HARBR 41108 1600               83                N/A
WVE H/P(F/S)=  2/ 9 WND WVE H/P(F/S)=  2/ 9

27WRITEBCH 41037 1500            78 81  130/  8/  8 1023.1R
FRYING PAN 41013 NOT AVBL
SUNST NRSH 41024 1500            85     140/  6/  8 1022.4
CAPRS NRSH 41029 1500            83      80/  8/ 10   N/A
EDISTO     41004 1600            82 83   70/  8/ 10 1021.7F
WVE H/P(F/S)=  3/ 8 WND WVE H/P(F/S)=  2/ 3 SWL H/P/D(F/S/D)=  2/ 8



..........OFFSHORE BUOYS BEYOND 100 NM OFFSHORE...........
.....IN A TRIANGLE---HAT TO BERMUDA TO BAHAMAS TO HAT.....


STATION/POSITION TIME  SKY/WX   TEMP    WIND        PRES    VSBY
                                AIR SEA DIR/SP/G
                 (UTC)          (F)     (DEG/KT/KT) (MB)    (MI)
150E HAT   41001 NOT AVBL
W BERMUDA  41048 1454            79 80   30/  8/ 10 1023.2S
WVE H/P(F/S)=  4/ 8 WND WVE H/P(F/S)=  2/ 3 SWL H/P/D(F/S/D)=  5/ 60/ 8

ATLANTIC S 41049 1504            84 87   20/  2/  4 1022.0R
WVE H/P(F/S)=  5/ 8 SWL H/P/D(F/S/D)=  5/ 80/ 8

E BAHAMAS  41046 1512            84 84   80/ 14/ 16 1020.7R
WVE H/P(F/S)=  4/ 9 WND WVE H/P(F/S)=  3/ 6 SWL H/P/D(F/S/D)=  3/ 90/ 9

NE BAHAMAS 41047 1531            78 84  130/  6/  8 1022.7S
WVE H/P(F/S)=  5/ 9 SWL H/P/D(F/S/D)=  5/120/ 9

120E CANVRL41010 1600            83 85  230/  2/  4 1021.4F
WVE H/P(F/S)=  3/ 8 WND WVE H/P(F/S)=  2/ 3 SWL H/P/D(F/S/D)=  3/120/ 8


END




U.S. Dept. of Commerce
NOAA National Weather Service
1325 East West Highway
Silver Spring, MD 20910
E-mail: w-nws.webmaster@noaa.gov
Page last modified: May 16, 2007
NATIONAL WEATHER SERVICE: for Safety, for Work, for Fun - FOR LIFE